{"data":{"norad_id":60122,"intl_designator":"2024-118K","name":"STARLINK-11157 [DTC]","alt_names":[],"object_type":"PAYLOAD","status":"ACTIVE","operator":null,"country":"US","launch_date":"2024-06-24","launch_site_code":"AFWTR","launch_vehicle":null,"mission":null,"orbit_class":"UNKNOWN","rcs_meters":null,"size_class":null,"mass_kg":null,"dimensions":null,"purposes":["comms"],"wikipedia_slug":null,"has_3d_model":false,"image_url":null,"decayed_at":null,"tle_current":{"epoch":"2026-09-21T17:06:24.957504Z","epoch_age_seconds":76737,"freshness":"FRESH","line1":"1 60122U 24118K   26264.71278886 -.00002952  00000+0 -19522-4 0  9996","line2":"2 60122  53.1587 334.7391 0000445  86.6867 273.4202 15.69717753128783","mean_motion":15.69717753,"eccentricity":4.45e-5,"inclination_deg":53.1587,"raan_deg":334.7391,"arg_perigee_deg":86.6867,"mean_anomaly_deg":273.4202,"bstar":-1.9522e-5,"rev_number":12878,"period_min":91.736237119566,"perigee_km":359.40473044317,"apogee_km":360.0043983424,"semimajor_km":6737.8415643928,"source":"CELESTRAK","updated_at":"2026-09-22T09:00:49.156340Z"}}}